Weather History for Cartersville, GA

Change the Weather History Date:

Tuesday, January 1, 2013

  Actual Average Record
Temperature  
Mean Temperature 46 °F 41 °F  
Max Temperature 50 °F 51 °F 69 °F (2005)
Min Temperature 42 °F 30 °F 19 °F (2002)
Degree Days  
Heating Degree Days 19 24  
Month to date heating degree days 24  
Since 1 July heating degree days 1326  
Moisture  
Dew Point 47 °F    
Average Humidity 96    
Maximum Humidity 100    
Minimum Humidity 71    
Precipitation  
Precipitation 1.23 in 0.11 in 2.12 in (1964)
Month to date precipitation 0.11  
Year to date precipitation 0.11  
Sea Level Pressure  
Sea Level Pressure 30.02 in    
Wind  
Wind Speed 1 mph (ENE)    
Max Wind Speed 4 mph    
Max Gust Speed -    
Visibility 4 miles    
Events Rain    
T = Trace of Precipitation, MM = Missing Value Source: NWS Daily Summary

Daily Weather History Graph

Daily Weather History Graph

Search for Another Location

Airport:

Trip Planner

Search our weather history database for the weather conditions in past years. The results will help you decide how hot, cold, wet, or windy it might be!

Date:

Astronomy

Jan. 01, 2013 Rise Set
Actual Time 7:45 AM EST 5:41 PM EST
Civil Twilight 7:17 AM EST 6:08 PM EST
Nautical Twilight 6:46 AM EST 6:40 PM EST
Astronomical Twilight 6:15 AM EST 7:10 PM EST
Moon 9:58 PM EST (1/1) 10:08 AM EST (1/1)
Length of Visible Light 10h 51m
Length of Day
9h 55m
Waning Gibbous, 83% of the Moon is Illuminated
Jan 1
Waning Gibbous
Jan 4
Last Quarter
Jan 11
New
Jan 18
First Quarter
Jan 26
Full

Hourly Weather History & Observations

Time (EST) Temp. Windchill Dew Point Humidity Pressure Visibility Wind Dir Wind Speed Gust Speed Precip Events Conditions
12:53 AM 45.0 °F 43.5 °F 36.0 °F 71% 30.09 in 10.0 mi ENE 3.5 mph - N/A   Clear
1:53 AM 45.0 °F - 37.0 °F 74% 30.10 in 10.0 mi Calm Calm - N/A   Scattered Clouds
2:41 AM 42.8 °F - 37.4 °F 81% 30.10 in 10.0 mi Calm Calm - N/A   Mostly Cloudy
2:53 AM 44.1 °F - 39.0 °F 82% 30.08 in 10.0 mi Calm Calm - N/A   Overcast
3:53 AM 46.9 °F - 37.9 °F 71% 30.08 in 10.0 mi Calm Calm - N/A   Overcast
4:53 AM 46.9 °F - 39.9 °F 77% 30.06 in 10.0 mi Calm Calm - N/A   Overcast
5:53 AM 48.0 °F - 41.0 °F 77% 30.04 in 10.0 mi East 3.5 mph - N/A   Overcast
6:53 AM 48.0 °F - 42.1 °F 80% 30.05 in 10.0 mi Calm Calm - N/A   Overcast
7:53 AM 48.0 °F - 45.0 °F 89% 30.08 in 3.0 mi Calm Calm - 0.01 in Rain Light Rain
8:27 AM 46.4 °F - 46.4 °F 100% 30.10 in 2.0 mi Calm Calm - 0.03 in Rain Rain
8:45 AM 46.4 °F - 46.4 °F 100% 30.10 in 1.5 mi Calm Calm - 0.07 in Rain Rain
8:53 AM 46.0 °F - 46.0 °F 100% 30.09 in 1.2 mi Calm Calm - 0.09 in Rain Rain
9:00 AM 46.4 °F - 46.4 °F 100% 30.10 in 1.5 mi Calm Calm - 0.02 in Rain Light Rain
9:53 AM 46.9 °F - 46.9 °F 100% 30.08 in 1.5 mi East 3.5 mph - 0.18 in Rain Rain
10:48 AM 46.4 °F - 46.4 °F 100% 30.09 in 2.0 mi Calm Calm - 0.17 in Rain Light Rain
10:53 AM 46.9 °F - 46.9 °F 100% 30.08 in 2.0 mi Calm Calm - 0.18 in Rain Light Rain
10:55 AM 46.4 °F - 46.4 °F 100% 30.08 in 2.0 mi Calm Calm - 0.00 in Rain Rain
11:49 AM 48.2 °F - 48.2 °F 100% 30.07 in 1.8 mi Calm Calm - 0.07 in Rain Light Rain
11:53 AM 48.0 °F - 46.9 °F 96% 30.06 in 1.5 mi Calm Calm - 0.08 in Rain Rain
12:22 PM 48.2 °F - 48.2 °F 100% 30.04 in 2.0 mi NE 3.5 mph - 0.02 in Rain Light Rain
12:36 PM 48.2 °F - 48.2 °F 100% 30.04 in 1.5 mi NE 3.5 mph - 0.04 in Rain Rain
12:53 PM 48.0 °F - 48.0 °F 100% 30.02 in 1.5 mi NE 3.5 mph - 0.08 in Rain Rain
1:53 PM 48.9 °F - 48.9 °F 100% 30.01 in 1.2 mi NNE 3.5 mph - 0.09 in Rain Rain
2:53 PM 48.9 °F - 48.9 °F 100% 30.00 in 1.8 mi Calm Calm - 0.09 in Rain Light Rain
2:59 PM 48.2 °F - 48.2 °F 100% 30.00 in 2.0 mi East 3.5 mph - 0.01 in Rain Light Rain
3:18 PM 50.0 °F - 50.0 °F 100% 29.99 in 4.0 mi Calm Calm - 0.01 in Rain Light Rain
3:26 PM 50.0 °F - 50.0 °F 100% 29.99 in 4.0 mi Calm Calm - 0.02 in Rain Light Rain
3:36 PM 50.0 °F - 50.0 °F 100% 29.99 in 3.0 mi East 3.5 mph - 0.03 in Rain Light Rain
3:53 PM 50.0 °F - 50.0 °F 100% 29.97 in 5.0 mi Calm Calm - 0.04 in Rain Light Rain
4:22 PM 50.0 °F - 50.0 °F 100% 29.98 in 4.0 mi Calm Calm - 0.02 in Rain Light Rain
4:30 PM 50.0 °F - 50.0 °F 100% 29.98 in 6.0 mi Calm Calm - 0.02 in Rain Light Rain
4:43 PM 50.0 °F - 50.0 °F 100% 29.98 in 5.0 mi Calm Calm - 0.03 in Rain Light Rain
5:25 PM 50.0 °F - 50.0 °F 100% 29.98 in 2.5 mi Calm Calm - 0.02 in Rain Light Rain
5:35 PM 50.0 °F - 50.0 °F 100% 29.98 in 3.0 mi Calm Calm - 0.03 in Rain Light Rain
5:53 PM 50.0 °F - 50.0 °F 100% 29.96 in 4.0 mi Calm Calm - 0.05 in Rain Light Rain
6:07 PM 50.0 °F - 50.0 °F 100% 29.96 in 4.0 mi Calm Calm - 0.02 in Rain Light Rain
6:24 PM 50.0 °F - 50.0 °F 100% 29.97 in 4.0 mi Calm Calm - 0.04 in Rain Light Rain
6:35 PM 50.0 °F - 50.0 °F 100% 29.97 in 3.0 mi Calm Calm - 0.06 in Rain Rain
6:53 PM 50.0 °F - 50.0 °F 100% 29.96 in 4.0 mi North 3.5 mph - 0.08 in Rain Light Rain
7:53 PM 50.0 °F - 50.0 °F 100% 29.98 in 2.0 mi Calm Calm - 0.06 in Rain Rain
8:27 PM 50.0 °F - 50.0 °F 100% 29.98 in 2.0 mi Calm Calm - 0.05 in Rain Light Rain
8:31 PM 50.0 °F - 50.0 °F 100% 29.98 in 1.5 mi Calm Calm - 0.05 in Rain Light Rain
8:53 PM 50.0 °F - 50.0 °F 100% 29.97 in 2.5 mi Calm Calm - 0.07 in Rain Light Rain
9:14 PM 50.0 °F - 50.0 °F 100% 29.99 in 1.5 mi Calm Calm - 0.02 in Rain Light Rain
9:39 PM 50.0 °F - 50.0 °F 100% 30.00 in 2.5 mi Calm Calm - 0.04 in Rain Light Rain
9:53 PM 50.0 °F - 50.0 °F 100% 29.97 in 2.5 mi Calm Calm - 0.05 in Rain Light Rain
10:01 PM 50.0 °F - 50.0 °F 100% 29.99 in 2.5 mi Calm Calm - 0.00 in Rain Light Rain
10:04 PM 50.0 °F - 50.0 °F 100% 29.99 in 2.5 mi Calm Calm - 0.00 in Rain Light Rain
10:16 PM 50.0 °F - 50.0 °F 100% 30.01 in 1.5 mi Calm Calm - 0.01 in Rain Light Rain
10:19 PM 50.0 °F - 50.0 °F 100% 30.01 in 2.0 mi Calm Calm - 0.01 in Rain Light Rain
10:28 PM 50.0 °F - 50.0 °F 100% 30.00 in 4.0 mi Calm Calm - 0.01 in Rain Light Rain
10:53 PM 50.0 °F - 50.0 °F 100% 29.98 in 7.0 mi North 3.5 mph - 0.03 in Rain Light Rain
11:19 PM 50.0 °F - 48.2 °F 94% 30.00 in 10.0 mi Variable 3.5 mph - 0.01 in Rain Light Rain
11:50 PM 50.0 °F - 48.2 °F 94% 30.00 in 7.0 mi Calm Calm - 0.04 in Rain Light Rain
11:53 PM 48.9 °F - 48.9 °F 100% 29.99 in 6.0 mi Calm Calm - 0.05 in Rain Light Rain